Theta_e
317 320 321 321 320 319 319 319 319 320 320 320 321 322 322 322 321 320 318 316 316 318 319 319 320 320 320 317 314 313 313 313 314 314 313 312 311 310 310 309 309 308 308 309 309 308 309 309 308 311 316 317 316 317 318 318 319 320 321 322 322 322 322 322 322 322 322 322 322 322 321 321 320 320 319 318 318 318 318 317 317 318 318 318 318 318
317 320 321 320 319 319 320 320 320 320 319 320 321 321 322 322 322 321 318 316 316 318 319 319 320 319 320 320 315 312 313 312 313 314 312 312 311 310 310 309 309 308 308 308 308 308 309 309 309 312 316 317 318 319 319 319 318 319 320 320 321 321 320 321 321 321 321 321 320 320 320 319 318 318 317 316 315 314 314 314 314 314 313 313 313 313
320 320 319 319 319 319 320 320 320 320 320 321 321 321 322 322 322 321 318 316 315 318 320 319 320 319 319 321 316 312 312 313 313 314 313 312 311 310 310 309 308 308 307 307 307 308 308 309 310 312 314 316 316 317 318 317 317 318 319 318 318 318 318 318 318 318 318 318 318 317 317 316 315 314 312 311 309 309 309 309 308 307 307 307 307 306
322 321 319 319 320 320 320 319 320 320 320 322 321 321 322 321 323 323 318 316 316 317 319 319 319 319 319 320 317 313 313 313 313 313 313 312 311 310 310 309 308 307 307 307 307 308 308 310 312 312 313 314 314 315 317 317 318 318 318 316 316 316 316 316 316 316 316 315 315 314 313 312 310 308 306 305 305 305 305 305 304 304 304 303 303 303
322 321 319 319 320 321 321 320 320 320 320 322 323 322 322 322 323 323 320 317 317 318 318 318 320 320 319 320 318 314 314 313 312 312 312 311 310 310 309 308 308 307 307 306 307 307 308 310 311 312 313 314 314 316 317 317 317 316 315 314 314 314 316 316 315 315 314 313 312 310 309 307 306 305 304 304 304 303 303 303 302 302 301 301 300 300
321 320 321 322 321 321 322 321 322 322 320 322 323 322 321 322 322 324 324 321 321 323 320 319 324 327 322 321 320 316 314 312 310 309 309 310 309 309 308 308 307 307 307 306 306 307 308 310 311 312 313 314 315 316 316 316 315 314 313 314 313 313 314 313 313 312 311 310 308 307 306 305 305 304 303 303 302 302 301 301 300 299 299 299 298 298
320 319 321 324 323 323 324 322 323 323 321 322 326 326 322 321 323 325 325 325 326 326 321 319 325 328 323 322 322 316 313 313 311 309 309 309 308 308 308 307 307 306 306 305 306 307 308 310 311 312 313 314 315 315 316 315 314 313 314 314 312 312 311 311 309 308 308 307 306 305 305 305 305 304 303 302 301 300 300 299 299 298 298 297 297 297
320 320 323 324 324 325 323 321 323 322 322 324 326 326 324 322 324 325 325 326 326 324 321 319 322 324 322 322 320 315 313 314 312 310 309 309 308 308 307 307 306 306 306 306 306 307 308 309 311 313 313 313 314 315 315 314 313 313 313 312 310 309 307 307 306 305 305 305 305 304 304 304 303 303 302 301 300 299 299 298 298 297 297 297 297 297
320 321 325 325 324 324 322 321 325 323 322 325 324 324 324 323 323 324 324 326 324 323 323 322 321 323 324 322 318 315 316 316 313 311 309 309 308 307 307 307 306 306 306 306 306 307 308 309 310 312 313 313 313 313 313 313 313 312 311 309 307 306 305 305 304 304 304 304 304 303 303 303 302 302 301 300 299 299 298 298 298 297 297 296 296 296
321 318 320 323 323 322 321 322 326 326 323 322 322 322 323 322 322 322 323 324 322 322 323 323 322 323 325 324 319 317 318 318 315 313 310 309 309 307 307 306 306 305 305 306 306 307 307 308 309 311 312 313 312 312 312 312 311 309 307 306 305 304 304 304 303 303 303 303 303 302 302 302 301 301 300 299 299 298 297 297 297 296 296 296 296 296
317 315 315 319 320 319 319 318 319 323 321 319 322 323 322 322 321 321 322 322 322 322 323 322 322 322 324 325 320 319 320 318 317 316 311 309 309 307 307 306 305 305 305 306 306 306 307 308 308 309 311 311 311 311 310 309 308 306 305 305 304 304 303 303 302 302 302 302 302 301 301 301 301 300 300 299 298 297 297 297 296 296 296 295 295 295
316 317 318 317 316 316 319 319 315 316 318 319 322 323 323 322 320 320 321 321 322 324 323 323 322 321 323 324 320 320 319 318 319 318 312 310 309 307 307 306 305 305 305 305 306 306 306 307 307 308 309 309 309 308 308 307 306 305 304 304 303 303 302 302 302 301 301 301 301 300 300 300 300 300 299 299 298 297 296 296 296 295 295 295 295 294
320 320 319 318 316 315 321 322 317 316 318 321 323 324 325 325 322 323 323 322 323 323 320 321 322 322 322 322 320 320 318 317 318 316 312 310 309 307 306 306 304 304 305 305 305 306 306 306 307 307 307 307 306 306 306 305 304 304 303 303 303 302 302 302 301 301 301 300 300 300 300 300 299 299 298 298 297 296 296 296 295 295 295 295 294 294
323 321 320 319 317 316 320 321 320 319 319 320 322 323 326 326 324 326 325 324 326 322 316 317 321 323 324 322 320 319 316 313 313 313 312 311 309 307 306 305 304 304 305 305 305 306 306 306 306 306 306 306 305 305 304 304 304 303 303 302 302 302 302 301 301 300 300 300 299 299 299 299 298 297 297 296 296 296 295 295 295 295 295 295 295 294
325 325 322 320 318 317 318 319 320 320 318 318 320 322 324 325 327 328 326 326 327 322 315 316 322 325 325 322 317 313 310 308 310 312 312 310 308 307 306 304 304 304 304 305 306 306 306 306 306 305 305 305 304 304 303 303 303 302 302 302 302 302 301 301 301 300 299 299 299 298 298 297 297 296 296 296 296 295 295 295 295 295 295 295 294 294
324 327 322 318 317 317 318 318 319 320 319 318 319 322 323 323 325 326 323 320 321 320 317 317 322 323 319 316 311 308 308 308 309 310 309 308 307 306 305 304 304 304 304 305 305 306 306 305 305 305 305 304 304 303 303 302 302 302 302 301 301 301 301 301 300 299 299 298 298 298 297 296 296 296 296 296 295 295 295 295 295 295 295 294 294 294
325 326 322 317 316 315 316 318 319 320 321 320 320 322 322 321 322 324 322 318 318 322 321 319 320 318 315 315 311 309 311 309 308 309 308 307 306 305 304 304 303 304 304 305 306 306 305 305 305 305 304 304 303 303 303 302 302 302 301 301 301 301 301 300 299 299 298 298 297 297 296 296 296 295 295 295 295 295 295 295 295 295 294 294 294 294
327 325 320 317 318 315 312 315 318 317 318 321 322 321 321 322 320 320 322 321 322 324 323 320 320 319 318 319 313 310 313 311 308 309 308 306 306 304 304 303 303 304 304 304 305 305 305 305 305 304 304 303 303 303 302 302 302 301 301 301 301 301 300 299 299 298 298 297 297 296 296 296 295 295 295 295 295 295 295 295 294 294 294 294 293 293
326 325 319 316 318 315 311 315 319 316 314 317 318 318 320 323 322 320 322 323 324 324 323 321 321 319 319 319 315 312 313 311 308 309 309 307 305 304 304 303 303 303 303 304 305 305 305 305 304 304 303 303 303 303 302 302 301 301 301 301 301 300 300 299 298 298 297 297 296 296 296 295 295 295 294 295 295 295 295 294 294 294 293 293 293 293
324 326 322 315 314 314 313 316 320 319 315 314 314 316 319 321 322 322 321 322 324 324 323 323 323 322 320 318 317 315 313 311 308 308 309 307 305 305 305 304 303 303 304 305 305 305 305 305 304 304 303 303 303 302 302 301 301 301 301 300 300 299 299 298 298 297 297 296 296 296 295 295 294 294 294 294 294 294 294 293 293 293 293 293 293 292
322 325 323 316 313 315 316 316 318 319 317 315 316 318 319 318 319 321 321 320 322 323 323 323 323 325 321 316 316 315 312 311 310 308 308 306 306 306 305 304 304 303 304 305 305 305 305 304 304 304 303 303 303 302 302 301 301 300 301 300 300 299 298 298 297 297 297 296 296 295 295 294 294 293 294 294 293 293 293 292 292 292 292 292 292 291
321 322 322 317 314 316 317 316 316 318 318 317 316 317 318 318 319 321 321 320 319 321 323 322 323 325 320 313 314 316 314 312 310 308 308 306 306 307 306 305 304 304 305 305 305 305 305 304 304 304 303 303 302 302 301 301 301 300 300 300 299 299 298 298 297 297 296 296 295 294 294 293 293 293 293 293 293 292 292 292 292 292 292 291 291 290
319 320 321 320 317 316 316 315 314 315 317 318 316 317 318 318 318 320 322 322 321 320 321 321 322 324 318 313 314 315 314 312 310 308 307 307 307 307 306 306 304 305 305 305 305 305 305 304 304 304 303 303 302 302 301 301 300 300 300 299 299 298 298 297 297 296 296 295 294 293 293 293 293 293 293 292 292 292 292 292 292 291 291 291 290 289
318 319 321 321 319 317 314 313 312 312 314 317 317 317 317 317 318 319 320 321 321 321 320 320 321 320 316 313 312 309 309 311 310 309 309 308 308 307 307 307 305 305 305 304 304 304 304 304 303 304 303 303 302 301 301 300 300 299 299 299 298 298 297 297 296 296 295 294 293 293 293 292 292 292 292 292 292 292 292 292 291 291 291 290 290 289
318 320 321 321 322 321 317 315 315 314 313 315 317 317 316 317 318 318 317 318 320 320 320 320 321 320 316 314 311 308 309 310 309 310 311 309 309 308 308 307 306 306 305 304 304 304 303 303 303 303 303 303 302 301 301 300 299 299 299 298 298 298 297 297 296 295 294 294 293 292 292 292 292 292 292 292 291 291 292 291 291 291 291 290 290 290
319 320 320 321 323 324 322 321 319 316 314 314 315 315 316 317 318 318 317 318 318 320 321 320 320 318 313 312 311 310 311 310 308 309 310 310 310 309 308 308 307 306 306 305 305 304 304 304 303 303 303 303 302 301 301 300 299 299 298 298 298 298 297 296 295 295 294 293 293 292 292 292 292 292 292 291 291 291 291 291 291 291 291 290 290 290
319 320 319 320 322 322 323 321 318 317 316 315 315 315 316 317 317 318 318 318 319 320 320 320 320 317 314 312 312 312 311 311 309 308 308 309 309 309 308 308 307 307 306 306 305 305 304 303 303 303 302 302 302 301 301 300 299 299 299 299 298 297 296 296 295 294 293 293 292 292 292 292 292 292 291 291 291 291 291 291 291 291 291 290 290 290
318 318 317 319 319 320 320 318 315 316 316 316 316 315 315 316 317 318 318 318 319 320 319 319 320 321 317 313 314 314 313 312 309 306 307 308 309 308 308 308 307 307 306 306 305 304 304 303 303 302 302 301 301 301 301 300 300 300 299 299 298 297 296 296 295 294 293 292 292 291 291 291 291 291 291 291 291 291 291 291 291 291 291 290 290 290
317 317 316 317 317 318 318 315 314 315 316 316 316 316 315 315 316 317 317 317 318 319 319 320 321 321 316 312 314 315 312 311 309 307 307 308 308 308 308 307 307 307 306 306 306 305 304 304 303 302 302 301 301 301 301 301 300 300 299 298 298 297 296 296 295 294 293 292 292 291 291 291 291 291 291 291 291 291 291 291 291 291 291 290 290 290
314 316 315 316 316 317 317 315 313 313 314 315 315 315 315 315 315 315 316 316 317 317 318 319 320 320 316 313 313 313 310 309 309 308 307 307 307 307 307 307 307 307 307 307 306 305 305 304 304 303 302 301 301 302 302 302 301 301 299 298 297 296 296 295 295 294 293 292 291 291 291 291 291 291 291 291 291 291 291 291 291 291 291 290 290 289
313 315 313 313 315 315 315 315 314 313 313 314 314 315 315 314 314 314 314 315 316 316 316 316 317 318 315 313 312 310 309 309 309 308 308 308 308 308 308 308 308 307 306 306 305 305 305 305 304 303 303 303 303 303 303 303 302 300 299 298 297 296 295 295 294 294 293 292 291 291 291 291 291 291 291 291 291 291 291 291 291 291 290 290 290 289
311 312 311 312 315 316 315 315 314 312 312 313 313 314 314 314 314 314 314 315 314 315 316 315 316 316 315 313 310 308 308 309 308 308 309 309 310 310 309 309 308 307 306 306 306 306 306 305 305 304 304 305 304 304 303 302 301 300 298 298 297 296 295 294 294 294 293 292 291 291 291 291 291 291 290 291 291 291 291 291 291 290 290 290 289 289
309 311 312 312 315 315 312 312 312 311 312 314 315 315 314 313 314 314 314 314 313 313 314 314 315 316 315 314 312 310 310 310 308 309 310 309 310 309 309 309 308 307 307 307 307 307 307 307 306 306 306 305 305 304 303 303 301 301 300 300 298 297 295 294 294 293 293 292 291 290 291 291 291 291 290 291 291 291 290 291 291 290 290 290 289 289
308 311 312 313 315 314 309 309 311 313 315 316 314 315 315 314 314 314 313 313 313 313 313 313 316 317 315 314 315 314 312 311 309 310 310 310 309 309 308 308 307 307 307 307 307 307 306 306 306 305 305 304 304 303 303 302 302 301 301 300 298 297 295 294 293 293 293 292 291 290 290 290 290 290 290 291 291 291 291 290 290 290 290 290 289 289
309 310 311 313 314 311 308 309 314 315 316 313 310 310 313 314 314 314 313 313 313 313 312 313 315 316 313 311 312 312 311 310 310 310 309 309 308 308 308 307 307 307 307 306 306 306 306 305 305 304 304 303 302 302 301 300 300 300 300 299 297 296 295 294 293 293 292 292 291 290 290 290 290 290 290 291 291 291 291 291 290 290 290 290 289 289
309 310 311 312 311 309 308 311 315 315 313 310 306 305 309 313 313 313 313 313 312 312 312 313 314 313 310 308 309 309 309 309 308 308 308 308 308 308 308 308 307 307 306 306 306 306 305 305 304 303 302 301 300 299 298 298 299 299 299 298 297 296 295 294 293 292 292 292 291 290 290 290 290 290 290 291 291 291 291 290 290 290 290 290 289 289
309 310 311 311 311 310 310 311 313 313 312 311 307 306 309 312 312 312 313 313 312 311 310 312 313 312 309 308 308 307 307 306 306 306 307 307 307 308 307 307 306 306 305 305 305 305 304 303 302 301 300 299 298 297 297 298 299 299 299 297 296 295 294 293 293 292 292 291 291 290 290 290 290 290 290 291 292 292 291 290 290 290 290 290 289 289
306 308 310 312 311 311 311 311 311 312 313 314 310 307 308 309 309 311 313 313 313 310 308 310 313 311 309 306 305 304 305 306 307 307 306 306 306 306 306 305 305 304 304 304 304 304 303 302 300 299 298 298 297 297 297 299 299 299 298 297 297 296 294 294 293 292 292 291 291 291 291 291 291 290 290 291 292 291 290 290 290 290 289 290 289 289
303 305 307 310 311 310 310 311 312 312 313 313 310 306 304 306 306 308 310 312 311 308 306 309 310 309 307 304 302 303 306 308 308 306 305 305 305 304 304 303 303 303 303 302 302 301 301 300 298 298 297 297 296 297 298 299 298 298 298 298 297 296 296 295 295 294 293 292 292 292 292 292 291 290 290 290 291 290 290 290 290 289 289 289 289 289
304 305 306 309 310 310 310 311 311 311 311 310 306 302 303 305 305 308 311 311 308 305 305 308 307 306 306 304 302 304 307 308 307 305 304 304 303 302 302 301 300 300 299 298 298 298 298 298 297 297 296 296 296 296 297 297 297 297 296 297 297 297 296 297 296 296 295 293 292 292 292 291 291 290 290 290 290 290 290 290 289 289 289 289 289 288
304 305 306 308 309 310 310 311 311 311 311 307 303 300 302 305 306 309 310 308 304 303 304 306 305 305 305 304 302 304 306 305 304 303 302 302 301 300 299 298 297 297 296 296 296 296 296 297 296 296 296 296 296 296 296 296 296 296 295 295 296 296 295 296 296 296 295 293 292 292 292 291 291 290 290 290 290 289 289 289 289 289 289 289 289 288
306 306 307 308 308 309 310 310 311 312 309 304 300 300 302 306 309 308 305 302 302 303 303 304 304 304 305 304 303 304 304 304 303 302 301 300 300 299 298 297 296 295 295 295 295 296 296 296 295 295 295 295 295 295 295 295 295 295 295 295 295 295 295 295 295 295 294 294 293 293 293 292 291 290 290 289 289 289 289 289 289 289 289 289 289 288
307 307 307 308 308 308 309 309 311 312 307 300 299 301 303 306 308 304 299 299 301 303 303 303 303 304 304 304 304 304 303 302 302 301 300 300 299 298 298 296 295 295 294 294 294 295 295 295 295 295 295 295 295 294 294 294 294 294 294 294 294 293 294 294 295 295 295 294 294 294 294 293 292 291 290 290 289 289 288 288 288 288 288 289 289 288
308 308 308 308 309 309 309 310 309 307 303 299 301 304 304 304 303 301 299 299 300 301 302 302 302 303 303 303 303 302 302 301 300 299 299 298 298 297 297 295 294 294 294 294 294 294 294 294 294 294 294 294 294 293 293 293 293 293 293 292 292 292 293 293 294 294 294 295 295 295 294 294 293 292 291 290 289 288 288 288 288 288 288 289 289 288
308 306 306 308 309 308 308 308 304 301 299 299 300 302 302 301 300 300 301 301 300 301 301 301 301 301 301 301 300 300 299 299 298 298 297 297 297 296 295 295 294 294 293 293 293 293 293 293 293 293 293 293 292 292 292 292 291 291 291 291 291 292 292 292 293 293 293 294 294 295 294 294 294 293 292 291 290 289 288 288 288 288 288 289 289 288
302 300 301 306 308 306 304 302 300 298 298 299 299 300 301 300 299 300 300 300 300 300 300 299 300 300 299 299 298 297 297 297 297 296 296 296 296 295 294 294 293 293 293 293 293 293 293 293 293 292 292 292 292 292 292 291 291 291 291 291 291 291 292 292 292 292 293 293 293 293 293 293 293 292 292 291 290 289 289 288 288 288 288 288 289 288
299 298 300 304 307 307 304 299 297 298 298 298 298 299 299 299 299 299 299 299 299 298 298 297 298 298 298 297 296 296 296 296 295 295 295 295 295 295 294 294 293 293 293 293 293 293 293 293 293 292 292 292 292 292 292 291 291 291 291 291 291 291 291 292 292 292 292 292 292 292 292 292 292 291 291 291 290 289 289 288 288 288 288 289 289 288
300 299 301 303 303 303 301 296 294 295 297 297 298 299 298 298 299 298 299 298 297 297 296 296 296 297 297 296 295 295 295 295 295 295 294 294 294 294 294 294 293 293 293 293 293 293 293 292 293 292 292 292 292 292 292 291 291 291 291 291 291 291 291 291 291 292 292 292 292 292 291 291 291 291 291 290 290 290 289 289 289 288 289 289 289 288
300 300 302 303 301 300 298 294 293 295 296 296 297 298 298 298 298 298 298 298 297 296 296 295 295 295 295 295 295 295 295 295 294 294 294 294 294 294 294 294 293 293 293 293 293 293 292 292 292 292 292 292 292 292 292 291 291 291 291 291 291 291 291 291 291 291 291 291 291 291 291 291 291 290 290 290 290 290 290 290 289 289 289 289 289 288
299 301 301 301 301 301 299 296 295 298 299 298 298 299 299 298 298 298 298 297 297 297 296 296 296 296 295 295 295 295 295 295 294 294 294 294 294 294 294 294 293 293 293 292 293 293 292 292 292 292 292 292 292 292 291 291 291 291 291 291 291 291 291 291 291 291 291 291 291 291 291 290 290 290 290 290 290 290 290 289 289 289 289 288 288 287
299 300 300 300 301 301 300 298 297 298 300 298 298 299 299 299 298 298 298 297 297 297 296 296 296 296 295 295 295 294 294 294 293 293 293 293 293 293 293 293 293 293 293 293 292 292 292 292 292 292 292 292 292 291 291 291 291 291 291 291 291 291 291 291 291 291 291 291 291 291 291 290 290 290 290 290 290 290 289 289 289 289 288 288 287 286
Wind_Speed
8 4 3 5 7 7 7 9 10 9 8 8 4 2 5 4 5 3 3 4 2 2 5 6 6 8 6 6 12 17 17 15 15 14 16 16 15 15 13 13 12 12 13 11 9 9 8 7 6 9 12 11 12 12 12 12 11 11 14 16 15 15 14 13 12 11 11 11 11 12 11 10 11 10 8 7 6 6 6 5 5 6 6 5 5 5
5 5 6 9 9 8 7 8 10 9 9 8 4 4 5 3 6 5 2 4 3 2 4 6 7 9 9 7 11 17 14 13 17 17 17 17 16 15 15 14 13 14 13 10 10 10 9 8 8 12 14 14 14 14 14 14 12 13 14 12 12 13 12 12 12 11 10 10 10 10 10 9 9 9 7 6 6 7 7 6 7 7 6 6 6 6
4 6 8 11 9 8 9 7 6 7 7 7 3 2 4 3 5 3 3 3 3 1 3 5 7 8 9 8 10 17 15 15 21 19 18 19 18 17 16 16 15 14 12 11 12 11 11 10 11 14 15 14 15 15 15 14 14 15 14 11 10 10 9 9 9 8 8 9 9 8 7 7 8 10 10 11 14 13 13 13 13 13 13 12 12 12
5 6 10 14 11 8 9 5 3 4 2 4 3 2 4 3 4 3 1 2 3 2 3 4 6 6 7 6 6 16 18 14 16 16 16 18 18 17 17 16 16 14 12 12 12 12 13 13 13 15 16 16 17 17 16 16 15 16 14 11 11 10 10 10 9 8 8 9 9 8 9 11 14 17 18 19 20 18 18 19 18 18 17 16 16 16
9 5 6 12 11 8 7 5 4 2 2 4 6 6 5 4 6 5 2 2 2 3 4 3 6 6 8 10 7 9 11 8 10 12 13 15 16 15 16 16 14 14 14 14 13 14 15 16 16 17 18 18 19 19 18 18 16 15 13 12 12 13 12 12 10 9 8 9 12 14 17 18 20 21 21 21 21 20 19 19 19 19 17 16 16 16
11 8 5 8 9 7 6 5 6 5 4 5 7 8 9 7 7 6 1 2 1 3 4 3 3 4 5 10 9 6 4 4 8 10 11 14 15 15 18 17 15 14 14 14 15 15 17 18 18 18 19 19 20 20 19 18 17 15 15 15 14 15 14 14 12 11 12 14 16 18 19 19 20 22 21 20 20 19 18 18 18 17 16 15 14 14
4 5 6 6 7 7 6 5 6 7 4 5 4 4 7 8 6 5 4 1 1 3 2 4 3 4 4 5 6 8 7 7 7 8 12 16 17 18 19 19 19 18 17 16 16 17 19 20 21 21 21 21 20 21 20 19 18 17 17 16 15 15 16 17 17 16 17 17 18 18 18 18 18 19 20 19 18 17 17 16 16 15 15 14 13 12
4 6 4 5 6 6 6 5 6 9 5 4 3 2 3 4 4 4 4 4 3 2 2 3 3 4 6 5 4 8 7 6 7 8 11 17 20 21 20 21 22 22 21 20 19 20 21 22 23 23 23 22 22 22 21 20 19 18 17 16 16 16 18 18 19 18 17 16 17 16 16 17 16 16 18 18 16 16 15 14 14 13 12 12 11 11
3 7 6 7 7 5 6 4 6 10 5 2 1 2 4 3 1 2 4 4 3 3 3 4 3 3 7 4 6 7 6 7 10 11 11 17 22 22 22 22 21 22 23 22 21 22 23 23 24 25 25 25 24 24 23 22 20 19 18 18 19 19 19 18 17 17 17 15 15 15 14 15 15 15 16 16 15 15 13 12 12 11 10 10 9 9
1 3 4 6 6 5 3 2 1 6 6 3 3 5 5 3 2 0 2 2 2 5 5 5 6 4 7 3 6 4 5 7 10 10 11 18 23 23 24 24 22 22 23 23 23 24 25 26 25 26 26 26 25 25 24 22 21 21 22 22 22 21 19 18 17 16 16 15 14 14 12 12 13 14 14 14 14 13 11 10 10 9 9 9 8 8
3 2 1 1 2 2 5 5 6 2 6 7 5 5 4 1 3 2 1 2 2 7 6 7 9 6 6 3 7 6 7 9 8 7 10 16 22 25 25 26 25 24 24 25 26 26 27 27 27 27 27 27 26 25 24 24 24 24 24 23 22 21 20 19 17 16 15 15 13 13 12 11 11 12 12 12 12 12 10 9 9 8 8 7 7 7
3 2 1 1 3 6 6 4 6 6 4 6 4 4 2 0 2 2 2 2 4 7 5 9 11 10 8 4 5 6 8 10 9 9 11 15 22 27 27 27 27 26 26 27 28 28 29 28 28 28 28 28 28 27 27 26 26 26 24 23 22 21 20 19 17 16 15 15 14 13 12 11 11 10 10 10 10 10 9 8 8 7 7 7 7 7
3 5 4 3 4 7 5 3 4 5 2 3 4 5 3 1 0 1 3 3 6 7 3 6 8 9 9 7 7 5 2 2 4 10 17 20 24 28 28 28 27 27 28 29 30 31 30 30 30 31 30 30 29 29 29 28 27 26 24 22 21 20 20 18 18 17 16 15 15 14 12 11 11 10 10 9 9 9 8 7 6 6 6 6 6 7
3 5 7 4 3 10 9 5 3 1 3 6 6 6 5 4 3 4 4 3 5 5 3 1 2 3 4 5 9 6 1 4 5 8 21 25 27 27 27 28 27 27 30 31 32 32 32 32 32 32 32 31 31 31 30 29 27 25 24 22 21 20 19 18 18 17 17 16 15 14 12 11 11 11 10 9 9 8 7 6 5 5 4 4 5 6
4 4 8 7 4 12 13 10 8 5 5 8 6 6 6 5 3 4 4 4 3 1 3 1 2 3 2 2 4 1 5 6 9 12 19 22 23 24 25 26 26 28 31 32 33 33 33 33 33 33 33 33 32 31 30 28 27 25 24 23 21 21 20 19 18 18 17 16 15 14 13 12 11 11 10 9 8 8 6 5 3 2 2 2 4 6
7 5 7 8 6 14 14 12 9 7 3 5 4 5 6 4 2 2 2 2 1 1 2 3 3 4 3 1 1 4 6 6 8 16 21 21 22 25 25 27 28 29 32 34 34 34 34 34 34 34 34 34 33 31 30 29 27 26 24 23 22 20 19 19 18 18 17 16 15 14 13 12 12 11 10 9 8 7 6 4 3 2 1 2 4 6
6 3 2 4 4 9 7 7 9 7 3 3 4 6 5 2 1 3 2 1 1 4 4 4 4 4 1 1 2 5 4 3 3 11 19 20 23 25 25 28 30 31 34 35 36 36 36 36 36 35 35 34 33 31 30 29 27 26 25 24 23 21 20 19 19 19 18 16 15 15 14 13 12 11 10 9 9 8 7 6 4 2 0 2 4 6
5 2 2 1 2 2 2 1 3 1 3 4 5 5 3 3 1 1 2 1 2 7 4 5 6 4 3 4 2 5 4 3 4 6 13 17 21 23 24 28 30 31 33 34 35 36 36 37 37 36 35 34 33 32 31 29 28 27 25 24 23 22 21 21 20 19 18 17 16 15 15 14 13 13 12 11 10 9 8 7 4 2 1 2 4 6
3 3 3 1 1 1 3 1 1 2 3 3 2 2 3 1 2 3 2 3 4 6 5 4 6 6 7 6 4 7 10 9 7 7 9 14 20 23 24 27 28 30 32 34 36 37 38 39 38 37 36 35 34 33 32 30 29 28 26 24 23 21 21 21 20 20 19 18 17 16 16 16 15 14 14 13 12 10 9 7 4 2 1 2 3 5
2 3 2 3 2 2 2 2 4 3 1 2 3 3 1 2 3 4 3 2 3 5 5 3 3 4 7 7 10 13 13 13 12 10 10 14 22 26 27 29 31 32 35 37 39 39 40 40 39 38 37 36 35 34 33 32 30 29 28 26 24 23 22 22 21 20 20 19 18 18 17 17 17 16 15 14 12 11 9 7 5 3 1 1 3 4
1 2 3 2 3 2 2 4 9 9 7 4 2 3 3 2 1 0 2 2 3 3 4 3 5 5 3 3 10 16 14 14 16 14 12 16 24 27 28 31 34 36 38 39 40 41 41 41 40 39 38 37 36 35 34 33 32 31 29 28 27 26 25 24 23 22 21 21 20 19 19 19 18 17 16 15 13 11 9 7 5 3 2 2 3 4
2 2 3 1 1 3 3 5 8 8 8 8 7 7 8 6 3 2 4 4 4 4 3 3 6 6 3 3 2 8 10 12 17 16 14 19 26 27 28 32 34 36 38 38 40 41 41 42 41 40 40 39 38 37 36 35 34 32 31 30 29 28 26 25 24 23 23 22 21 21 21 20 19 18 17 15 13 11 10 8 6 4 2 2 3 4
2 1 2 2 3 3 2 1 3 2 2 2 4 6 6 6 6 6 6 4 4 3 1 1 4 6 3 3 5 2 3 10 18 18 16 20 26 27 27 29 32 33 35 35 37 40 41 42 42 41 41 40 40 39 38 37 36 34 33 32 31 29 28 26 25 25 24 23 23 23 22 21 20 19 18 16 14 13 11 9 6 4 3 2 3 3
3 2 1 2 2 1 2 1 3 4 2 2 4 4 6 8 9 7 5 3 3 4 3 2 5 6 3 3 6 7 6 11 14 17 18 19 22 24 25 26 28 30 31 32 34 37 39 40 42 43 43 42 42 41 40 39 37 36 35 34 32 30 29 28 27 27 26 25 25 24 23 23 22 20 19 17 16 14 12 9 7 5 3 3 3 4
4 2 3 1 2 1 1 0 1 2 1 4 4 5 8 10 8 4 2 1 3 8 8 5 7 6 2 3 5 6 7 10 11 12 17 20 21 23 24 24 26 28 29 30 32 34 38 41 43 44 45 44 44 43 42 40 39 38 36 35 33 32 31 31 30 28 28 27 26 26 25 24 23 21 20 19 17 15 13 10 8 6 4 3 3 4
6 2 5 5 6 7 5 2 3 3 2 3 4 7 10 11 11 7 3 4 9 7 8 7 8 4 2 2 1 2 5 7 9 12 15 18 20 22 23 23 24 25 27 29 31 34 38 41 44 45 45 46 46 45 43 41 40 39 37 35 34 34 34 33 31 30 30 29 28 27 27 26 24 22 21 20 18 16 14 11 9 7 5 4 4 6
3 3 8 9 10 10 4 2 3 2 5 6 7 10 12 13 13 8 4 9 10 3 5 10 7 1 3 3 3 2 5 5 5 9 12 15 18 19 20 21 21 22 24 27 30 34 37 40 43 45 45 46 46 46 44 42 40 38 37 37 37 36 36 35 33 32 31 30 29 29 28 27 25 24 23 22 19 17 15 13 10 8 6 5 6 7
3 4 10 12 14 13 4 4 1 0 5 7 9 12 14 13 14 12 12 13 6 2 9 12 8 6 8 7 6 5 5 5 5 10 12 15 16 16 16 18 19 20 23 26 30 34 37 39 42 43 45 45 46 46 43 41 40 39 39 40 39 39 38 37 35 34 33 32 31 31 30 28 26 26 25 23 21 19 16 14 12 10 8 7 7 8
3 6 9 10 14 16 7 4 1 1 2 3 5 11 13 15 17 17 20 18 9 8 11 5 8 9 8 6 7 6 6 6 8 13 15 15 15 15 15 17 18 20 23 26 30 33 36 39 41 42 44 44 44 44 43 41 41 41 41 42 41 41 40 39 37 36 35 34 34 33 31 29 28 28 27 25 23 21 18 17 15 12 10 9 9 9
3 4 5 6 10 15 11 6 3 2 3 5 6 9 11 16 19 19 21 21 15 14 12 1 3 5 2 4 6 6 8 9 11 15 16 16 15 13 13 14 17 21 24 27 29 31 33 35 38 40 41 42 42 42 42 43 43 44 44 44 44 43 42 41 39 38 37 37 36 34 33 31 31 30 28 26 24 22 20 18 16 13 12 11 11 11
4 3 3 5 5 11 12 10 6 4 6 9 11 13 11 10 13 16 18 16 12 15 17 10 7 7 2 3 1 4 10 12 12 13 13 10 8 9 11 15 19 22 25 27 27 28 28 29 32 35 37 37 37 39 41 43 44 45 45 45 45 44 43 42 41 40 39 38 37 36 35 34 33 32 30 27 25 24 22 20 17 15 15 14 13 13
5 2 2 4 5 8 8 9 8 4 2 8 17 21 15 8 8 12 14 13 13 15 17 15 12 8 4 4 4 6 10 11 10 8 7 5 9 13 17 21 24 26 26 25 23 22 22 23 25 28 29 30 32 36 39 42 44 45 45 45 45 44 43 43 43 42 41 40 39 38 38 37 35 33 31 29 27 25 23 21 20 19 17 16 15 15
6 4 2 4 5 5 1 4 5 3 1 8 16 17 15 13 11 12 11 11 12 12 11 11 9 6 5 6 5 4 5 8 8 7 7 12 17 20 24 26 26 26 22 18 17 17 17 19 21 23 25 26 29 31 33 36 39 41 42 43 44 44 44 45 45 44 43 42 41 41 40 39 37 34 32 30 28 26 25 23 22 21 19 18 17 17
6 6 4 4 3 2 2 5 6 4 5 8 6 3 11 18 18 15 12 10 9 8 8 6 4 6 7 7 7 6 6 6 8 12 17 21 23 24 24 23 22 20 17 15 16 16 17 19 19 20 20 20 22 22 23 27 30 32 34 38 40 42 43 45 46 45 45 44 44 43 42 41 38 35 32 30 28 27 27 26 25 23 21 20 19 18
8 6 4 3 2 1 3 5 5 6 7 4 4 3 5 12 15 16 13 9 10 11 9 5 4 7 8 9 10 11 14 16 18 21 21 22 23 22 21 21 19 17 17 17 18 18 18 18 17 17 17 18 19 19 21 24 25 26 29 33 37 40 41 44 45 46 46 46 46 45 44 43 40 36 33 31 30 29 29 29 27 25 24 22 20 19
8 7 3 2 2 2 2 5 6 4 4 1 3 5 1 4 5 8 8 9 10 11 9 8 9 8 7 10 13 14 17 18 18 20 20 17 18 19 20 21 20 19 19 18 19 20 19 18 18 18 18 19 20 21 23 23 23 24 27 31 34 37 39 42 44 45 47 48 48 47 46 43 40 37 34 32 31 30 31 31 29 26 25 23 22 20
6 7 4 3 4 3 3 6 3 6 7 3 1 2 5 5 6 8 6 8 9 9 9 9 9 8 8 12 14 13 13 11 9 15 21 20 19 21 21 20 20 20 19 18 19 20 20 19 20 19 20 21 22 23 23 22 21 22 24 27 31 34 37 40 42 44 47 49 49 48 45 42 41 39 36 34 33 32 33 32 29 27 26 25 23 21
3 4 4 5 4 3 3 3 2 5 8 5 3 7 9 7 7 9 5 4 4 10 14 12 10 10 9 10 13 13 10 5 4 12 20 21 19 19 19 18 19 18 18 19 21 21 21 21 21 20 21 22 22 21 20 19 19 19 21 23 26 30 34 37 40 42 45 47 48 46 43 42 43 41 38 36 34 33 34 33 30 28 27 25 24 23
2 0 1 3 3 4 4 4 5 6 6 3 3 6 7 10 10 9 2 4 3 11 19 17 12 11 10 12 16 14 7 4 7 10 12 11 12 13 14 14 15 17 18 19 19 20 21 20 20 20 20 20 20 19 18 18 18 19 20 21 22 26 30 32 35 37 40 42 44 44 43 44 44 42 39 37 35 34 34 33 30 29 28 26 25 24
3 2 2 4 4 5 6 5 4 3 2 3 3 2 8 15 14 10 1 5 4 11 20 20 14 13 14 17 17 11 6 9 8 7 6 7 8 10 10 10 12 14 15 16 16 18 19 19 19 19 18 18 18 17 17 17 18 19 19 19 20 23 25 26 27 30 33 38 41 43 44 44 44 42 39 38 36 34 35 34 32 30 29 28 27 26
3 2 3 5 5 6 7 4 2 2 2 4 5 8 15 16 9 3 3 4 5 10 15 17 17 15 16 21 19 13 14 16 10 6 5 6 7 8 8 8 10 11 13 13 13 15 16 17 17 17 16 16 15 15 15 16 16 18 18 18 20 21 20 20 21 25 30 35 38 39 41 42 42 41 39 38 37 36 36 36 34 31 30 29 29 28
4 2 3 4 5 5 5 3 2 3 2 6 8 11 15 10 2 3 4 5 10 13 11 13 14 13 16 23 23 19 18 16 13 10 8 7 8 8 8 9 10 9 10 10 11 12 14 14 15 15 15 15 14 14 13 14 15 16 16 18 19 17 16 17 19 23 27 30 33 35 37 38 39 39 39 38 38 38 38 37 36 33 32 31 31 30
5 5 3 4 4 3 2 4 3 3 4 14 13 6 5 2 3 8 9 5 8 12 11 11 13 13 15 18 20 19 16 13 12 12 11 11 11 11 10 10 9 8 8 7 8 10 11 11 12 13 13 12 12 12 12 13 14 15 16 18 16 14 14 16 18 21 24 26 29 31 33 34 35 36 37 38 39 39 39 39 38 35 34 33 33 32
3 4 3 3 4 4 3 5 3 1 8 16 11 3 5 5 6 14 15 9 7 9 10 11 11 12 13 13 14 15 13 11 11 12 13 13 13 12 10 9 8 8 8 8 7 7 8 10 11 11 11 11 11 11 12 13 14 15 17 17 15 14 15 16 17 19 22 24 26 27 29 30 31 32 34 36 38 39 40 40 39 37 36 35 34 33
2 3 3 2 2 3 3 4 3 3 12 13 4 2 10 12 12 14 14 13 12 10 9 11 12 12 12 11 11 11 11 12 13 13 14 14 13 12 10 8 8 8 8 8 7 7 8 9 10 11 11 12 12 13 14 15 15 17 18 17 16 15 16 17 18 20 21 22 24 26 27 28 29 30 32 34 36 38 39 40 41 39 38 37 36 35
1 3 3 2 2 2 2 4 4 6 12 11 5 7 16 18 15 13 11 11 12 9 9 12 13 13 13 11 11 12 12 13 13 14 14 13 12 11 10 9 8 8 9 9 8 8 10 11 12 13 14 14 14 15 15 15 15 16 15 15 15 16 17 18 19 20 22 23 24 25 26 27 28 29 31 32 35 37 38 40 40 40 40 39 38 36
1 4 4 1 3 4 1 3 3 4 10 11 7 10 17 17 14 12 9 9 10 10 11 11 11 13 15 14 13 13 13 13 13 14 13 12 12 11 10 10 10 10 10 10 10 11 12 13 15 16 16 16 16 16 16 16 15 15 14 14 14 16 18 20 21 22 23 24 25 26 27 27 28 29 30 32 34 36 38 40 41 41 42 41 40 39
3 6 4 1 3 2 2 2 2 4 7 10 9 11 15 16 14 12 10 10 10 10 11 12 12 15 16 15 14 13 12 13 13 13 12 12 12 11 10 11 12 12 12 12 12 14 16 17 17 18 19 19 18 17 18 18 17 17 16 16 15 16 18 20 22 24 25 26 27 28 28 29 29 30 31 32 34 36 38 39 40 42 43 42 41 40
7 7 5 2 3 2 1 2 4 4 2 7 10 12 14 16 16 14 11 11 11 11 12 14 15 15 15 13 12 12 12 12 11 11 11 12 13 13 13 13 13 14 15 14 15 17 18 19 19 20 21 20 19 19 20 20 19 19 19 19 19 19 19 20 22 24 27 28 29 30 31 31 32 32 33 34 35 36 38 39 40 42 43 43 41 39
7 5 3 4 3 3 3 6 9 5 1 6 12 15 15 15 16 15 13 12 12 11 12 14 15 15 14 12 12 12 12 11 11 11 12 13 14 14 14 14 15 16 17 17 19 20 21 21 21 21 21 21 20 21 22 21 21 21 22 23 23 23 22 22 23 24 27 29 31 32 33 34 35 35 35 36 37 38 39 40 41 42 43 43 42 39
8 5 5 6 4 4 5 12 16 11 5 6 9 11 13 15 15 14 13 12 11 11 12 13 14 14 13 12 11 11 11 11 11 12 13 14 14 15 15 16 17 18 18 20 21 22 22 23 23 23 23 22 22 23 23 23 23 23 24 26 27 27 27 27 27 27 28 29 31 33 35 36 38 38 39 39 40 40 41 41 42 43 44 44 43 42
Wind_Direction
174 174 201 209 225 221 213 213 224 244 260 279 304 307 283 290 280 277 122 163 163 157 228 234 251 261 244 196 182 188 189 200 206 186 178 185 190 194 193 196 198 206 227 238 225 218 214 209 191 155 141 139 140 137 138 140 144 145 138 139 143 140 143 151 158 160 158 157 160 164 165 163 157 155 167 178 182 186 187 185 171 160 157 156 158 156
178 207 221 219 227 236 242 235 227 232 250 264 270 278 279 270 268 274 135 155 114 103 243 257 267 264 261 238 177 176 184 203 204 187 184 190 190 193 192 192 196 209 225 227 216 212 205 200 179 159 155 152 146 141 141 142 147 153 148 144 143 141 143 147 151 158 165 168 169 172 172 176 177 172 184 183 161 154 150 145 139 131 129 134 135 126
223 233 230 229 234 238 248 262 251 234 237 250 250 274 272 261 272 287 112 149 122 124 250 267 272 264 264 256 176 175 190 205 206 198 194 193 188 188 189 191 197 209 219 214 212 209 198 191 174 165 166 164 158 152 151 151 155 157 153 156 156 154 156 158 162 166 172 176 180 189 186 186 175 151 139 126 116 115 116 115 113 109 107 107 106 102
222 229 224 225 231 240 236 237 265 272 254 240 233 242 249 245 257 263 156 193 181 209 264 294 285 268 267 271 186 187 196 195 196 194 190 188 187 189 192 195 201 206 206 204 207 204 191 181 173 169 168 167 162 157 157 156 159 159 155 158 162 159 158 158 163 167 173 176 173 166 150 141 134 125 119 115 112 112 112 109 106 102 101 100 98 96
233 240 207 205 214 229 229 209 198 231 255 234 221 224 237 232 232 238 203 170 202 238 245 286 292 267 235 234 218 190 187 175 175 179 176 176 178 184 189 191 198 205 203 199 200 196 187 178 172 171 170 168 162 159 160 160 163 166 163 165 162 157 159 161 164 167 168 160 146 137 132 129 124 120 118 116 113 112 110 106 103 100 97 94 91 88
246 243 200 189 199 197 209 221 185 183 236 245 224 215 219 231 247 258 258 107 345 280 210 174 269 267 225 224 214 169 165 176 175 185 191 184 181 184 185 185 186 191 196 200 199 193 185 178 172 170 171 170 166 165 167 167 169 170 166 165 162 160 162 162 158 155 150 143 137 133 131 129 124 121 120 117 115 114 110 104 101 97 94 89 84 81
241 205 186 178 178 172 197 231 185 172 212 251 251 226 204 217 245 275 296 288 234 273 222 151 223 271 306 269 206 168 187 199 183 198 206 200 199 198 195 196 193 187 187 192 195 191 184 177 172 171 172 170 169 170 172 173 172 169 166 165 163 160 157 153 146 142 141 138 135 134 130 127 125 124 121 118 115 113 108 103 101 97 93 87 81 78
118 151 165 152 160 174 198 220 186 169 185 238 280 358 129 185 227 236 260 255 236 294 281 175 202 274 285 264 176 155 173 198 205 212 209 202 202 204 203 203 202 196 192 190 191 189 184 177 173 172 172 170 172 174 174 175 174 169 167 165 160 156 150 145 138 135 136 134 133 133 130 128 128 126 122 120 117 112 109 108 103 99 94 88 81 75
114 164 171 163 176 203 200 215 195 173 176 236 245 52 88 110 238 221 229 251 277 309 258 194 173 268 268 215 144 149 171 207 218 212 208 201 196 198 199 198 200 200 199 198 193 186 182 179 176 174 172 171 174 175 175 175 173 170 167 161 156 151 145 139 134 134 135 134 134 134 135 134 132 128 125 124 121 116 115 112 106 101 95 88 79 70
57 172 177 176 198 216 177 20 288 181 180 184 139 79 72 77 54 26 222 223 281 259 230 193 177 222 267 218 149 171 202 216 220 208 201 196 192 193 191 189 193 195 197 198 192 185 182 181 177 174 173 173 174 175 175 175 173 169 164 159 153 148 144 140 139 140 138 137 139 139 143 144 139 136 132 129 126 122 121 116 110 104 94 87 77 66
104 100 323 227 195 147 120 53 11 64 142 149 135 90 79 76 67 40 250 145 266 256 213 194 198 210 265 222 163 193 215 205 203 187 183 186 187 189 188 186 187 188 189 190 188 186 185 182 177 175 175 175 176 176 175 174 171 168 163 158 153 149 148 145 143 145 143 142 146 147 150 152 147 144 141 138 134 129 127 122 114 107 97 88 76 64
132 125 8 166 138 112 107 66 17 23 112 138 128 109 106 8 58 34 270 177 236 255 208 193 202 208 237 237 179 204 213 197 188 175 173 178 182 184 184 185 185 185 185 184 186 187 185 182 177 176 176 176 176 174 174 173 170 167 163 159 156 153 153 152 151 152 152 151 155 157 157 156 153 150 148 147 142 136 134 129 119 111 100 86 71 58
220 207 170 153 174 163 137 88 30 358 333 157 133 124 131 196 93 222 212 195 231 254 243 193 200 219 236 243 237 240 240 193 175 173 175 175 178 180 180 182 183 185 184 183 187 188 184 181 179 177 176 175 175 173 173 172 170 168 164 162 162 160 160 161 160 160 161 161 163 164 163 162 160 156 155 153 148 144 140 133 123 109 92 74 61 46
243 226 180 158 207 189 176 166 179 258 209 185 160 152 168 179 221 235 210 225 237 245 289 236 175 256 278 264 246 238 65 39 53 151 175 174 174 175 176 178 180 184 186 186 189 188 184 182 180 179 177 175 175 174 174 173 172 169 167 166 168 168 168 169 168 168 168 168 168 168 167 167 166 162 160 159 154 150 144 134 120 98 79 57 40 27
219 264 185 171 180 181 188 203 190 148 172 196 179 176 191 178 200 222 203 234 245 253 304 306 138 196 210 264 260 77 73 66 74 122 155 161 166 170 171 174 179 184 187 189 190 188 185 183 182 180 178 177 176 175 176 175 174 173 172 172 174 175 176 176 176 175 174 173 172 172 172 171 170 168 167 164 158 156 148 138 131 105 77 35 20 14
212 262 176 163 156 166 189 215 182 127 157 210 175 193 217 197 207 241 209 205 184 346 284 224 231 225 192 185 114 81 64 62 89 122 137 146 159 165 168 174 180 184 187 190 190 188 186 185 185 183 180 179 178 178 179 179 179 178 178 178 180 183 184 182 181 180 179 180 178 177 177 175 175 175 176 173 168 167 166 167 175 175 123 19 10 9
196 259 133 128 133 162 188 215 179 152 167 188 175 200 205 138 180 241 262 74 113 273 255 179 246 283 270 283 164 127 91 55 103 132 136 147 158 164 171 177 182 185 188 191 191 188 187 186 186 185 182 181 181 182 184 184 183 183 184 185 185 188 188 186 185 184 185 186 184 181 181 182 184 184 185 186 185 184 187 189 191 197 243 4 3 3
169 221 267 130 142 176 16 12 187 144 99 137 182 193 132 60 36 195 270 337 192 255 256 174 214 229 197 240 190 146 157 179 211 162 138 147 161 169 178 182 184 186 188 190 191 190 189 189 188 187 185 185 186 188 188 188 188 188 190 192 192 193 192 190 189 190 191 191 190 190 190 190 191 191 193 195 195 196 197 199 200 209 282 358 2 359
160 205 272 353 95 112 38 72 201 348 51 109 205 221 114 149 216 152 207 248 208 241 271 213 209 207 203 210 174 183 196 185 186 183 159 161 171 178 183 185 186 186 188 190 191 192 192 192 191 189 188 189 191 193 192 192 192 192 193 196 198 198 196 195 195 195 194 195 197 198 197 196 196 197 200 199 200 203 202 203 205 205 251 356 354 345
151 192 250 320 341 111 90 187 182 194 186 45 339 295 113 156 196 165 186 233 200 235 269 259 219 220 217 195 176 193 200 180 174 185 187 180 180 183 185 186 187 188 191 193 193 194 195 195 195 193 193 195 196 196 196 195 196 195 197 198 198 199 198 199 200 199 199 200 202 202 200 199 200 200 202 203 203 204 201 199 197 193 214 312 324 322
145 200 205 302 331 127 155 205 191 188 189 185 210 215 195 175 119 113 237 209 195 237 257 261 266 254 237 196 186 193 191 177 177 184 189 184 184 187 188 188 189 189 192 195 196 196 197 198 198 197 198 199 199 199 199 199 199 199 201 201 201 201 201 202 202 203 205 205 204 204 204 203 202 202 204 205 203 201 198 196 193 196 225 277 300 313
182 195 174 172 233 205 213 209 200 197 190 193 198 192 195 190 160 215 244 205 198 233 214 227 264 258 255 324 239 196 184 180 183 180 178 182 184 187 191 192 192 192 194 197 198 198 199 201 201 200 201 202 202 202 202 202 202 202 204 204 204 205 205 206 206 206 207 207 205 206 206 205 205 206 207 206 203 200 198 199 199 206 231 273 296 317
79 128 191 199 203 220 259 200 173 157 150 221 235 201 190 189 181 202 225 196 184 224 183 150 274 271 264 339 352 349 130 163 178 175 168 177 184 186 190 194 195 195 197 199 199 201 203 205 204 204 204 205 205 206 206 205 204 205 206 207 207 208 208 209 210 210 209 208 207 207 207 208 208 209 209 207 205 204 203 204 206 209 231 274 298 324
88 125 196 267 298 337 353 40 59 52 67 265 259 203 191 205 199 203 218 170 171 216 189 170 251 265 292 10 7 7 65 117 151 165 164 168 177 184 187 191 195 196 197 199 201 203 206 207 208 208 208 208 208 209 209 207 207 207 209 209 209 210 211 211 212 211 210 209 209 209 209 210 211 211 211 211 209 209 209 210 210 213 233 270 304 332
172 153 137 175 283 277 240 339 339 334 204 216 227 202 212 217 201 209 239 136 242 224 181 183 241 253 304 6 6 15 63 86 100 134 158 164 169 179 185 189 194 196 196 199 202 205 208 211 212 213 212 212 211 212 211 210 209 210 211 212 212 213 213 214 214 212 212 211 211 211 211 212 213 213 215 214 213 213 214 214 214 219 235 264 306 330
171 177 162 185 223 227 222 209 217 215 183 213 215 197 216 217 200 207 211 210 241 223 164 198 242 264 348 356 360 44 82 85 84 105 136 157 164 174 182 188 193 195 197 202 206 209 212 214 215 216 216 215 214 215 214 213 212 212 214 215 216 216 216 216 215 214 214 214 213 213 213 214 215 216 217 216 215 216 217 217 219 225 238 264 298 317
143 207 199 208 227 232 220 196 224 155 145 198 208 193 208 215 206 208 212 217 228 204 196 224 216 207 282 241 215 190 124 117 120 117 126 144 157 168 176 184 191 197 203 207 209 212 215 216 218 219 219 218 217 218 217 216 216 217 218 219 219 219 220 219 218 216 216 215 215 216 216 216 217 219 219 218 218 219 219 220 224 231 242 264 289 305
110 215 215 219 236 244 211 143 236 73 173 204 208 200 207 209 204 209 221 223 200 155 245 237 179 186 229 209 207 207 153 136 154 159 156 151 154 164 173 183 191 198 205 209 212 215 216 218 220 221 221 221 220 220 220 220 221 222 223 224 223 222 222 222 220 218 217 217 216 217 217 217 219 220 220 220 220 221 222 225 230 235 243 260 280 291
135 228 222 210 234 248 236 167 118 42 230 232 215 212 210 204 203 209 222 227 205 203 243 222 159 206 223 189 203 202 176 171 153 161 171 164 161 170 175 183 193 201 208 214 217 219 220 221 222 222 223 223 223 223 223 224 225 226 226 227 226 225 225 223 222 220 219 218 218 218 218 218 220 221 221 221 221 222 226 230 232 235 243 258 270 279
168 233 212 190 234 251 245 227 184 161 260 273 247 232 220 212 210 210 222 229 221 228 245 150 121 251 233 162 210 208 183 167 135 141 156 157 163 174 183 196 207 213 218 221 222 223 224 226 227 227 227 227 227 228 228 228 229 229 229 228 228 227 226 225 223 222 221 221 220 219 219 220 221 222 221 221 222 225 229 231 231 236 245 255 263 272
189 217 145 147 236 256 244 237 225 210 245 261 257 248 235 222 216 217 227 230 224 238 246 239 244 263 223 133 159 164 159 147 128 129 136 146 175 195 208 223 228 228 226 225 225 226 228 230 230 230 230 232 234 234 234 233 232 231 230 230 230 230 228 227 225 224 224 223 222 220 220 222 223 222 222 223 225 228 230 231 233 239 245 251 259 268
185 218 99 133 222 252 240 228 223 211 244 266 261 250 233 216 214 219 225 222 214 226 236 238 243 241 191 118 106 131 142 139 136 134 137 195 231 232 234 237 239 236 229 224 223 223 225 227 228 230 233 235 238 238 237 236 234 233 233 234 235 234 231 229 228 227 226 224 223 222 223 224 224 223 223 225 228 231 232 234 236 240 244 248 257 265
176 189 158 165 213 257 254 174 176 126 100 258 258 245 219 208 217 223 226 221 214 216 223 232 234 209 156 136 140 154 149 143 150 165 206 235 236 235 239 242 241 235 225 217 216 218 225 231 234 237 238 239 240 242 244 243 241 241 243 244 242 238 235 233 231 229 227 225 224 225 225 226 226 225 225 227 230 233 234 237 238 240 244 249 255 264
185 196 197 181 202 252 118 115 125 150 223 245 265 230 200 204 211 218 221 213 198 204 221 225 186 151 150 156 160 172 188 199 224 241 246 242 233 229 232 233 231 227 220 221 227 233 239 239 238 239 241 244 248 251 252 250 249 251 252 249 246 242 239 237 234 230 229 227 227 227 227 228 227 225 225 228 232 235 237 239 240 240 243 248 254 262
181 194 199 184 182 169 121 122 156 210 235 257 341 329 216 198 203 211 217 210 195 204 218 223 190 173 172 181 191 206 223 234 241 241 236 229 224 222 223 222 221 225 229 235 242 246 246 241 240 245 250 255 260 259 256 254 253 253 250 246 245 243 241 239 236 233 231 229 229 229 228 229 228 225 225 229 233 237 238 238 239 240 243 248 254 262
178 186 189 169 163 131 139 182 199 247 282 315 4 332 354 112 159 197 221 235 217 201 199 214 227 218 194 204 216 220 223 224 227 226 218 211 213 220 226 228 231 238 243 249 254 253 249 248 251 257 259 259 258 255 253 254 253 250 246 244 243 242 241 239 237 235 232 231 230 230 230 231 230 227 226 231 236 237 237 237 238 241 244 248 253 261
176 183 185 192 184 149 177 210 236 321 300 252 133 211 182 147 154 171 205 245 223 190 184 204 231 232 209 209 209 197 195 203 225 235 227 220 221 229 237 242 245 249 251 252 252 248 246 250 254 255 254 251 249 248 248 249 248 245 243 241 241 241 240 239 238 237 234 232 231 232 233 235 235 231 229 234 240 239 236 236 239 241 245 249 254 260
183 187 186 201 197 147 160 216 247 280 260 233 197 208 196 176 161 155 171 257 213 177 186 198 222 225 203 191 184 173 168 185 249 251 240 234 234 239 246 249 249 249 248 244 244 245 247 252 252 250 248 246 246 246 243 240 239 239 239 240 240 240 240 239 240 239 236 235 235 237 239 240 239 235 233 238 242 239 236 237 240 243 246 250 254 259
155 143 177 206 199 167 180 206 208 230 242 214 209 220 182 150 129 108 95 280 226 181 190 197 214 217 196 180 173 160 152 206 241 251 246 240 242 246 251 250 245 246 246 245 247 249 249 249 245 243 243 243 244 243 239 236 237 239 242 243 242 241 240 240 241 240 239 239 240 241 242 243 242 239 237 241 243 239 238 240 242 244 247 250 253 257
165 176 198 208 207 192 196 211 222 246 250 187 195 185 143 140 125 98 51 266 228 193 195 197 207 213 195 181 172 162 183 219 235 255 245 234 243 246 249 248 241 241 243 244 246 245 243 241 240 240 241 242 244 244 242 242 243 245 248 249 247 245 245 247 247 244 242 242 242 242 244 245 245 243 242 243 244 241 240 242 243 245 247 250 252 256
175 186 195 204 214 208 204 217 255 265 225 186 177 154 141 133 122 130 216 216 186 194 201 200 204 208 193 180 177 190 213 220 231 252 237 228 234 233 239 246 242 239 239 238 239 239 238 238 238 239 241 243 244 244 244 244 245 246 248 248 248 250 252 256 254 249 245 244 244 246 247 248 248 247 245 246 245 242 242 244 244 245 247 250 252 255
167 163 189 203 210 214 217 224 255 275 211 152 149 154 146 135 154 212 170 144 161 173 189 197 196 195 191 189 193 204 214 219 229 235 231 235 241 242 252 257 249 241 238 237 236 237 237 239 240 241 243 244 244 243 241 240 240 241 242 244 247 253 258 259 255 250 247 246 247 248 249 250 250 249 247 246 245 243 243 244 245 246 247 250 251 254
169 160 184 205 189 179 216 203 209 270 174 142 133 141 160 173 204 159 131 125 168 172 177 187 186 186 191 196 203 210 213 218 229 239 249 257 260 260 260 257 247 239 234 232 233 235 238 242 244 244 244 243 241 240 238 238 239 240 242 247 253 258 258 255 253 251 250 249 249 250 250 250 250 249 247 246 245 245 245 245 246 246 248 250 251 253
185 173 187 218 183 160 192 203 204 251 168 152 137 151 200 197 167 146 137 137 160 166 172 177 180 188 196 203 210 214 219 231 243 255 261 260 262 263 257 248 242 234 227 224 226 232 237 241 242 242 242 241 241 242 243 246 250 251 252 258 263 262 258 255 253 251 250 249 249 249 249 248 247 247 246 246 246 246 246 246 246 246 249 251 251 253
210 172 162 190 190 163 169 192 186 154 164 161 130 137 169 165 156 149 145 150 156 163 177 184 192 201 204 212 220 223 233 244 249 257 259 260 265 264 254 245 239 230 225 226 232 241 245 245 243 241 242 243 244 247 251 254 257 259 260 263 264 262 259 257 254 251 250 249 247 246 245 245 244 245 245 246 247 247 247 248 247 247 249 251 251 253
197 136 105 74 228 215 108 117 128 150 165 164 134 141 156 156 154 152 150 157 166 177 190 197 209 212 207 212 222 227 237 245 249 257 261 263 265 257 245 241 236 229 230 236 245 254 253 250 248 246 246 246 247 250 255 258 261 265 268 267 263 259 257 256 254 252 250 248 246 244 243 243 243 244 245 246 247 249 249 250 249 249 251 252 251 252
195 156 127 84 227 224 150 102 102 138 167 167 149 151 160 160 159 163 168 174 179 186 191 195 204 207 208 215 221 228 242 252 258 265 267 269 267 256 246 245 244 242 248 255 263 267 261 256 255 254 254 254 254 256 259 261 266 273 276 273 266 260 257 256 255 253 251 249 248 246 245 244 244 245 246 247 248 249 250 250 250 249 250 251 251 251
181 161 159 209 221 190 148 157 127 116 162 175 171 169 173 175 176 176 177 181 183 188 195 195 195 201 211 220 226 234 246 253 258 266 270 271 270 262 253 250 248 249 255 261 266 267 265 263 260 259 260 261 261 263 263 265 270 274 274 274 271 266 263 261 258 256 254 252 250 249 248 248 248 248 250 250 251 252 252 252 252 251 252 253 252 252
139 151 167 158 157 157 133 156 132 91 140 198 197 190 186 191 195 191 185 186 190 194 200 203 206 214 221 224 229 238 245 249 256 264 266 266 266 263 258 253 250 250 255 260 262 263 265 266 264 263 264 265 265 265 265 267 270 270 270 270 269 268 267 266 264 262 260 257 255 253 252 252 252 252 253 254 255 255 256 256 255 255 256 255 253 253
135 163 174 122 143 214 218 177 167 155 187 210 204 202 199 199 201 200 197 201 205 207 212 215 221 229 233 234 238 244 249 255 259 260 261 261 260 260 260 257 253 252 252 253 254 256 258 262 263 263 263 264 264 265 266 268 269 268 267 266 265 265 265 264 264 264 264 263 261 259 258 257 256 256 256 256 257 257 257 257 256 255 254 253 251 251
174 183 160 149 189 225 180 176 183 187 191 184 185 197 206 209 214 216 218 226 232 233 236 238 240 244 249 251 255 259 262 264 262 259 259 260 259 259 260 258 255 254 252 251 252 253 255 257 259 260 261 263 264 264 266 267 266 264 263 262 262 262 261 261 261 262 263 265 266 266 265 264 262 261 260 259 259 258 257 256 255 254 253 252 250 249